{"data":{"norad_id":61780,"intl_designator":"2024-199AX","name":"SITRO-AIS 37","alt_names":[],"object_type":"PAYLOAD","status":"ACTIVE","operator":null,"country":"CIS","launch_date":"2024-11-04","launch_site_code":"VOSTO","launch_vehicle":null,"mission":null,"orbit_class":"UNKNOWN","rcs_meters":null,"size_class":null,"mass_kg":null,"dimensions":null,"purposes":[],"wikipedia_slug":null,"has_3d_model":false,"image_url":null,"decayed_at":null,"tle_current":{"epoch":"2026-05-25T03:52:17.920128Z","epoch_age_seconds":54990,"freshness":"FRESH","line1":"1 61780U 24199AX  26145.16131852  .00046301  00000+0  64815-3 0  9992","line2":"2 61780  97.2969  20.7332 0007852  30.9099 329.2617 15.56638709130852","mean_motion":15.56638709,"eccentricity":0.0007852,"inclination_deg":97.2969,"raan_deg":20.7332,"arg_perigee_deg":30.9099,"mean_anomaly_deg":329.2617,"bstar":0.00064815,"rev_number":13085,"period_min":92.507014741081,"perigee_km":392.07313755448,"apogee_km":402.71343031237,"semimajor_km":6775.5302839334,"source":"CELESTRAK","updated_at":"2026-05-25T13:38:02.562041Z"}}}